GW0458 Weather Reports


Display with metric or nautical units.
time (UTC)temp
F
wind
direction
speed
MPH
gust
MPH
rain 1hr
in
rain 24hr
in
rain mn
in
humidity
%
barometer
mb
20260901103836 55 198 0.0 0.0 0.00 0.00 0.00 99 1017.0
20260901100832 55 196 0.0 0.0 0.00 0.00 0.00 99 1016.7
20260901093831 55 193 0.0 0.0 0.00 0.00 0.00 99 1016.3
20260901090830 56 194 0.0 1.0 0.00 0.00 0.00 97 1016.5
20260901083826 58 199 0.0 0.0 0.00 0.00 0.00 96 1016.4
20260901080822 58 201 0.0 0.0 0.00 0.00 0.00 94 1016.0
20260901073820 59 200 0.0 0.0 0.00 0.00 0.00 90 1016.3
20260901070821 60 197 0.0 0.0 0.00 0.00 0.00 88 1016.1
20260901063817 61 201 0.0 0.0 0.00 0.00 0.00 85 1016.1
20260901060813 62 205 0.0 0.0 0.00 0.00 0.00 82 1016.2
20260901053812 63 209 1.0 2.0 0.00 0.00 0.00 81 1016.1
20260901050810 64 197 0.0 1.0 0.00 0.00 0.00 79 1016.3
20260901043806 65 197 0.0 0.0 0.00 0.00 0.00 79 1016.2
20260901040804 66 203 0.0 0.0 0.00 0.00 0.00 77 1016.4
20260901033801 66 208 0.0 0.0 0.00 0.00 0.00 75 1016.2
20260901030802 68 211 0.0 0.0 0.00 0.00 0.00 73 1015.7
20260901023800 69 199 0.0 0.0 0.00 0.00 0.00 70 1015.7
20260901020756 70 225 1.0 1.0 0.00 0.00 0.00 69 1015.9
20260901013756 71 194 1.0 1.0 0.00 0.00 0.00 66 1015.8
20260901010755 72 212 0.0 1.0 0.00 0.00 0.00 64 1015.8
20260901003750 74 221 0.0 1.0 0.00 0.00 0.00 63 1015.7
20260901000748 76 237 2.0 2.0 0.00 0.00 0.00 57 1015.6
20260831233744 77 283 2.0 2.0 0.00 0.00 0.00 55 1016.2
20260831230741 76 209 2.0 2.0 0.00 0.00 0.00 58 1016.4
20260831223740 76 272 2.0 3.0 0.00 0.00 0.00 56 1016.9
20260831220736 77 261 2.0 2.0 0.00 0.00 0.00 55 1017.1
20260831213735 78 236 1.0 2.0 0.00 0.00 0.00 55 1017.3
20260831210734 77 224 1.0 2.0 0.00 0.00 0.00 55 1017.6
20260831203731 77 187 1.0 2.0 0.00 0.00 0.00 56 1018.4
20260831200726 75 223 1.0 1.0 0.00 0.00 0.00 58 1018.7
20260831193724 76 208 0.0 1.0 0.00 0.00 0.00 56 1019.2
20260831190721 75 209 0.0 0.0 0.00 0.00 0.00 57 1019.7
20260831183717 75 231 1.0 2.0 0.00 0.00 0.00 57 1020.1
20260831180714 70 214 1.0 1.0 0.00 0.00 0.00 65 1020.3
20260831173710 71 203 1.0 1.0 0.00 0.00 0.00 68 1020.8
20260831170708 67 205 0.0 0.0 0.00 0.00 0.00 73 1020.7
20260831163706 63 216 1.0 1.0 0.00 0.00 0.00 80 1020.9
20260831160702 61 209 0.0 0.0 0.00 0.00 0.00 82 1021.6
20260831153700 57 206 0.0 0.0 0.00 0.00 0.00 90 1021.8
20260831150655 53 207 0.0 0.0 0.00 0.00 0.00 99 1022.0
20260831143654 50 205 0.0 0.0 0.00 0.00 0.00 99 1021.8
20260831140651 50 205 0.0 0.0 0.00 0.00 0.00 99 1021.8
20260831133648 49 203 0.0 0.0 0.00 0.00 0.00 99 1021.8
20260831130648 50 192 0.0 0.0 0.00 0.00 0.00 99 1021.9
20260831123647 51 202 0.0 0.0 0.00 0.00 0.00 99 1022.0
20260831120644 52 205 0.0 0.0 0.00 0.00 0.00 99 1022.1
20260831113642 53 211 0.0 0.0 0.00 0.00 0.00 98 1022.4
20260831110642 54 214 0.0 0.0 0.00 0.00 0.00 96 1022.4